This is the latest recevied weather packets stored in our database for station/object OE3BCB-14. If no packets are shown the sender has not sent any weather packets the latest 1 day(s).
| Time | Temp. | Humidity | Pressure | Rain* | Wind** | Luminosity | Snow |
|---|---|---|---|---|---|---|---|
| 1778045028 | 20.56° C | 53% | 1011.2 hPa | - | - | 84 W/m² | - |
| 1778044423 | 18.89° C | 53% | 1011.2 hPa | - | - | 103 W/m² | - |
| 1778043818 | 18.33° C | 52% | 1011.1 hPa | - | - | 24 W/m² | - |
| 1778043516 | 18.33° C | 52% | 1011 hPa | - | - | 22 W/m² | - |
| 1778042911 | 18.89° C | 52% | 1011 hPa | - | - | 24 W/m² | - |
| 1778042306 | 18.33° C | 53% | 1010.9 hPa | - | - | 32 W/m² | - |
| 1778041399 | 17.78° C | 53% | 1010.7 hPa | - | - | 16 W/m² | - |
| 1778041096 | 17.78° C | 52% | 1010.6 hPa | - | - | 13 W/m² | - |
| 1778040794 | 17.78° C | 52% | 1010.6 hPa | - | - | 10 W/m² | - |
| 1778040189 | 17.78° C | 52% | 1010.6 hPa | - | - | 8 W/m² | - |
| 1778039887 | 17.78° C | 53% | 1010.5 hPa | - | - | 8 W/m² | - |
| 1778039584 | 17.78° C | 52% | 1010.5 hPa | - | - | 5 W/m² | - |
| 1778039282 | 17.78° C | 52% | 1010.4 hPa | - | - | 4 W/m² | - |
| 1778038979 | 17.78° C | 52% | 1010.4 hPa | - | - | 3 W/m² | - |
| 1778038677 | 17.78° C | 52% | 1010.4 hPa | - | - | 2 W/m² | - |
| 1778038375 | 17.78° C | 52% | 1010.3 hPa | - | - | 1 W/m² | - |
| 1778038072 | 17.78° C | 52% | 1010.3 hPa | - | - | 1 W/m² | - |
| 1778037770 | 17.78° C | 52% | 1010.3 hPa | - | - | 0 W/m² | - |
| 1778037165 | 18.33° C | 52% | 1010.3 hPa | - | - | 0 W/m² | - |
| 1778036863 | 18.33° C | 52% | 1010.4 hPa | - | - | 0 W/m² | - |
| 1778036560 | 18.33° C | 51% | 1010.3 hPa | - | - | 0 W/m² | - |
| 1778036258 | 18.33° C | 51% | 1010.3 hPa | - | - | 0 W/m² | - |
| 1778035955 | 18.33° C | 51% | 1010.4 hPa | - | - | 0 W/m² | - |
| 1778035653 | 18.33° C | 51% | 1010.4 hPa | - | - | 0 W/m² | - |
| 1778035350 | 18.33° C | 51% | 1010.5 hPa | - | - | 0 W/m² | - |
* Rain since midnight (hover to see other rain measurements)
** Current wind speed in m/s (hover to see current wind gust speed)